Location: Asheville, NC
(35.6000°N, 82.5500°W)
Time: 06:20:58
(UTC-05:00)

CUBEBUG 2 - Pass Details

Date: 11 January 2018
Orbit: 587 x 699 km, 97.6° (Epoch: 19 January)

Event Time Altitude Azimuth Distance (km) Brightness Sun altitude
Rises 18:30:32 0° 148° (SSE) 2,818 ? -10.9°
Reaches altitude 10° 18:32:47 10° 139° (SE) 1,931 ? -11.4°
Maximum altitude 18:36:38 37° 73° (ENE) 960 ? -12.1°
Drops below altitude 10° 18:40:36 10° 6° (N) 1,995 ? -12.9°
Sets 18:42:57 0° 358° (N) 2,925 ? -13.3°
